Flag for U.S.A. Weather past 2 weeks in Inverness, Florida, U.S.A.

Now
63 °F

Mild.


Feels Like: 63 °F
Forecast: 53 / 77 °F
Wind: 5 mph from Northeast

Location: The Villages

Current Time: Dec 26, 2014 at 8:52:14 PM

Latest Report: Dec 26, 2014 at 8:15 PM


Visibility: 10 mi

Pressure: 30.15 "Hg

Humidity: 88%

Dew point: 59 °F

Location of InvernessLocation

Historic Weather in Inverness — Graph

°F

Inverness temperature yesterday

Maximum temperature yesterday: 63 °F (at 12:15 AM)
Minimum temperature yesterday: 48 °F (at 10:35 PM)
Average temperature yesterday: 57 °F

Past Weeks' High & Low Weather Summary

 TemperatureHumidityPressure
High82 °F (Dec 24, 12:55 PM)100% (Dec 12, 11:35 PM)30.20 "Hg (Dec 12, 11:35 PM)
Low36 °F (Dec 13, 3:15 AM)21% (Dec 14, 1:55 PM)29.71 "Hg (Dec 24, 1:55 PM)
Average59 °F79%30.00 "Hg
* Reported Dec 11 7:15 PM — Dec 26 7:55 PM, Inverness, Weather by CustomWeather, © 2014

Note: Actual official high and low records may vary slightly from our data, if they occured in-between our weather recording intervals... More about our weather records

Advertising

Inverness weather history for previous 24 hours

 ConditionsComfort  
Time TempWeatherWind HumidityBarometerVisibility
7:55 PM
Dec 26
63 °FMild.7 mph88%30.15 "Hg8 mi
7:15 PM64 °FHaze.6 mph83%30.15 "Hg4 mi
6:55 PM64 °FMild.No wind83%30.14 "Hg9 mi
6:35 PM64 °FFog.No wind83%30.14 "Hg6 mi
6:15 PM64 °FMild.No wind83%30.13 "Hg9 mi
5:55 PM66 °FMild.No wind78%30.13 "Hg10 mi
5:35 PM66 °FHaze.No wind78%30.12 "Hg6 mi
5:15 PM66 °FMild.No wind78%30.12 "Hg9 mi
4:55 PM68 °FMild.No wind73%30.11 "Hg10 mi
4:15 PM68 °FMild.3 mph69%30.11 "Hg10 mi
3:55 PM68 °FMild.No wind69%30.10 "Hg9 mi
3:35 PM68 °FMild.5 mph69%30.10 "Hg9 mi
3:15 PM68 °FMild.No wind69%30.10 "Hg9 mi
2:55 PM68 °FMild.3 mph69%30.11 "Hg8 mi
2:35 PM68 °FMild.3 mph69%30.11 "Hg9 mi
2:15 PM68 °FMild.3 mph69%30.11 "Hg8 mi
1:55 PM68 °FHaze.6 mph69%30.11 "Hg6 mi
1:35 PM68 °FMild.7 mph69%30.11 "Hg10 mi
1:15 PM68 °FMild.5 mph69%30.12 "Hg9 mi
12:55 PM68 °FMild.6 mph69%30.13 "Hg7 mi
12:35 PM66 °FMild.7 mph68%30.14 "Hg9 mi
12:15 PM64 °FMild.5 mph73%30.15 "Hg9 mi
11:55 AM63 °FHaze.3 mph77%30.16 "Hg5 mi
11:15 AM63 °FMild.5 mph73%30.17 "HgN/A
10:55 AM63 °FMild.No wind73%30.18 "Hg9 mi
10:15 AM59 °FHaze.3 mph77%30.18 "Hg6 mi
9:55 AM57 °FCool.5 mph77%30.18 "Hg10 mi
9:35 AM55 °FCool.5 mph82%30.18 "Hg9 mi
9:15 AM55 °FHaze.6 mph82%30.17 "Hg5 mi
8:55 AM54 °FCool.5 mph88%30.17 "Hg8 mi
8:35 AM52 °FCool.3 mph88%30.17 "Hg9 mi
8:15 AM48 °FCool.No wind100%30.16 "Hg10 mi
7:55 AM46 °FFog.No wind100%30.16 "Hg6 mi
7:35 AM46 °FFog.No wind100%30.15 "Hg5 mi
7:15 AM46 °FCool.No wind93%30.15 "Hg7 mi
6:55 AM46 °FFog.No wind93%30.15 "Hg5 mi
6:35 AM46 °FFog.No wind93%30.15 "Hg4 mi
6:15 AM46 °FFog.No wind93%30.15 "Hg6 mi
5:55 AM46 °FCool.No wind100%30.14 "Hg9 mi
5:35 AM46 °FCool.No wind100%30.14 "Hg8 mi
5:15 AM48 °FFog.No wind94%30.14 "Hg5 mi
4:55 AM46 °FCool.3 mph100%30.13 "Hg9 mi
4:15 AM48 °FCool.No wind94%30.13 "Hg7 mi
3:55 AM48 °FFog.No wind100%30.14 "Hg6 mi
3:15 AM48 °FFog.No wind100%30.14 "Hg6 mi
2:55 AM48 °FFog.3 mph100%30.14 "Hg4 mi
2:35 AM50 °FCool.No wind94%30.15 "HgN/A
2:15 AM50 °FFog.6 mph94%30.15 "Hg5 mi
1:55 AM50 °FFog.No wind94%30.15 "Hg6 mi
1:35 AM50 °FFog.5 mph94%30.14 "Hg6 mi
1:15 AM50 °FCool.5 mph94%30.14 "Hg9 mi
12:55 AM50 °FCool.6 mph94%30.14 "Hg7 mi
12:35 AM50 °FCool.5 mph94%30.14 "Hg9 mi
12:15 AM50 °FCool.5 mph100%30.14 "Hg7 mi
11:55 PM
Dec 25
50 °FCool.3 mph100%30.15 "Hg7 mi
11:35 PM48 °FFog.3 mph100%30.15 "Hg5 mi
11:15 PM48 °FFog.No wind100%30.16 "Hg4 mi
10:55 PM48 °FFog.3 mph100%30.16 "Hg4 mi
10:35 PM48 °FFog.No wind100%30.16 "Hg1 mi
9:35 PM50 °FFog.No wind94%30.15 "Hg1 mi
9:15 PM50 °FFog.No wind100%30.15 "Hg3 mi
8:55 PM52 °FFog.No wind94%30.15 "Hg5 mi
8:15 PM52 °FCool.No wind94%30.14 "Hg8 mi
Weather by CustomWeather, © 2014

See weather overviewHow to use our weather pages